TimeEDT,TemperatureF,Dew PointF,Humidity,Sea Level PressureIn,VisibilityMPH,Wind Direction,Wind SpeedMPH,Gust SpeedMPH,PrecipitationIn,Events,Conditions,WindDirDegrees,DateUTC
12:53 AM,69.1,62.1,78,29.71,10.0,South,5.8,-,N/A,,Clear,190,2013-05-22 04:53:00
1:53 AM,66.9,61.0,81,29.71,10.0,SSW,3.5,-,N/A,,Clear,210,2013-05-22 05:53:00
2:53 AM,64.9,61.0,87,29.71,9.0,SSW,3.5,-,N/A,,Clear,200,2013-05-22 06:53:00
3:53 AM,66.0,62.1,87,29.71,9.0,SSW,5.8,-,N/A,,Partly Cloudy,200,2013-05-22 07:53:00
4:53 AM,66.9,62.1,84,29.68,10.0,South,3.5,-,N/A,,Partly Cloudy,190,2013-05-22 08:53:00
5:53 AM,66.0,62.1,87,29.69,8.0,Calm,Calm,-,N/A,,Mostly Cloudy,0,2013-05-22 09:53:00
6:53 AM,64.9,62.1,90,29.70,4.0,Calm,Calm,-,0.00,Rain,Light Rain,0,2013-05-22 10:53:00
7:53 AM,66.0,62.1,87,29.70,5.0,SW,3.5,-,0.01,Rain,Light Rain,220,2013-05-22 11:53:00
8:09 AM,66.2,62.6,88,29.72,1.5,WSW,4.6,-,0.05,Rain,Heavy Rain,240,2013-05-22 12:09:00
8:18 AM,64.4,62.6,94,29.73,0.5,WNW,6.9,-,0.25,Fog-Rain,Heavy Rain,290,2013-05-22 12:18:00
8:27 AM,64.4,62.6,94,29.71,0.5,NW,10.4,-,0.36,Fog-Rain,Heavy Rain,310,2013-05-22 12:27:00
8:32 AM,64.4,62.6,94,29.72,1.2,WNW,6.9,-,0.37,Rain,Light Rain,300,2013-05-22 12:32:00
8:38 AM,64.4,62.6,94,29.72,1.5,WNW,10.4,-,0.37,Rain,Light Rain,300,2013-05-22 12:38:00
8:53 AM,64.9,62.1,90,29.71,1.5,NW,10.4,-,0.43,Rain,Rain,320,2013-05-22 12:53:00
9:07 AM,64.4,62.6,94,29.71,7.0,North,9.2,-,0.00,Rain,Light Rain,350,2013-05-22 13:07:00
9:09 AM,64.4,62.6,94,29.71,4.0,North,10.4,-,0.00,Rain,Light Rain,350,2013-05-22 13:09:00
9:48 AM,64.4,62.6,94,29.73,4.0,ESE,4.6,-,0.01,Rain,Light Rain,120,2013-05-22 13:48:00
9:53 AM,64.9,62.1,90,29.71,4.0,East,3.5,-,0.01,,Overcast,90,2013-05-22 13:53:00
10:14 AM,66.2,62.6,88,29.70,7.0,ENE,6.9,-,0.00,,Overcast,60,2013-05-22 14:14:00
10:27 AM,66.2,62.6,88,29.70,4.0,NE,6.9,-,0.00,,Overcast,50,2013-05-22 14:27:00
10:53 AM,68.0,63.0,84,29.69,10.0,East,8.1,-,0.00,,Mostly Cloudy,80,2013-05-22 14:53:00
11:18 AM,69.8,62.6,78,29.69,10.0,East,8.1,-,N/A,,Mostly Cloudy,80,2013-05-22 15:18:00
11:53 AM,68.0,64.0,87,29.68,10.0,ESE,11.5,-,0.00,Rain,Light Rain,120,2013-05-22 15:53:00
12:53 PM,66.9,63.0,87,29.66,4.0,ESE,8.1,-,0.02,Rain,Light Rain,110,2013-05-22 16:53:00
1:12 PM,66.2,64.4,94,29.66,2.0,ESE,8.1,-,0.02,Rain,Light Rain,110,2013-05-22 17:12:00
1:15 PM,66.2,64.4,94,29.66,1.5,ESE,9.2,-,0.03,Rain,Rain,120,2013-05-22 17:15:00
1:22 PM,66.2,64.4,94,29.66,1.0,SE,9.2,-,0.12,Rain,Heavy Rain,130,2013-05-22 17:22:00
1:53 PM,66.9,64.9,93,29.64,2.0,SSE,6.9,-,0.20,Rain,Light Rain,150,2013-05-22 17:53:00
2:15 PM,68.0,64.4,88,29.65,2.0,SSE,5.8,-,0.00,,Overcast,150,2013-05-22 18:15:00
2:29 PM,69.8,66.2,88,29.65,2.0,South,4.6,-,0.00,Rain,Light Rain,180,2013-05-22 18:29:00
2:53 PM,70.0,64.9,84,29.63,2.0,SSW,8.1,-,0.00,,Haze,210,2013-05-22 18:53:00
3:41 PM,71.6,64.4,78,29.63,10.0,SSW,15.0,-,0.01,,Overcast,210,2013-05-22 19:41:00
3:53 PM,70.0,64.0,81,29.62,10.0,SW,17.3,24.2,0.01,,Overcast,220,2013-05-22 19:53:00
4:02 PM,69.8,64.4,83,29.63,2.0,SW,21.9,26.5,0.00,Rain,Light Rain,220,2013-05-22 20:02:00
4:53 PM,66.9,63.0,87,29.62,2.0,SW,15.0,26.5,0.06,Rain,Rain,230,2013-05-22 20:53:00
5:03 PM,68.0,62.6,83,29.63,10.0,SW,12.7,-,0.01,Rain,Light Rain,230,2013-05-22 21:03:00
5:53 PM,69.1,64.0,84,29.62,10.0,SW,11.5,-,0.01,,Scattered Clouds,230,2013-05-22 21:53:00
6:53 PM,69.1,62.1,78,29.63,10.0,West,11.5,-,N/A,,Overcast,260,2013-05-22 22:53:00
7:00 PM,69.8,62.6,78,29.63,10.0,West,9.2,-,N/A,,Mostly Cloudy,260,2013-05-22 23:00:00
7:21 PM,69.8,62.6,78,29.64,10.0,WSW,10.4,-,N/A,,Mostly Cloudy,250,2013-05-22 23:21:00
7:53 PM,68.0,61.0,78,29.63,10.0,WSW,9.2,-,N/A,,Scattered Clouds,250,2013-05-22 23:53:00
8:53 PM,66.9,61.0,81,29.64,10.0,SW,3.5,-,N/A,,Mostly Cloudy,220,2013-05-23 00:53:00
9:06 PM,66.2,62.6,88,29.65,10.0,Calm,Calm,-,N/A,,Mostly Cloudy,0,2013-05-23 01:06:00
9:53 PM,64.0,60.1,87,29.65,10.0,NE,9.2,-,N/A,,Overcast,50,2013-05-23 01:53:00
10:05 PM,64.4,60.8,88,29.66,10.0,Calm,Calm,-,N/A,,Overcast,0,2013-05-23 02:05:00
10:22 PM,62.6,60.8,94,29.66,10.0,ENE,3.5,-,N/A,,Overcast,60,2013-05-23 02:22:00
10:31 PM,62.6,60.8,94,29.66,10.0,ENE,3.5,-,N/A,,Overcast,70,2013-05-23 02:31:00
10:39 PM,62.6,60.8,94,29.66,10.0,North,6.9,-,N/A,,Overcast,360,2013-05-23 02:39:00
10:46 PM,62.6,59.0,88,29.66,10.0,NE,4.6,-,N/A,,Overcast,50,2013-05-23 02:46:00
10:53 PM,63.0,60.1,90,29.65,10.0,NE,3.5,-,N/A,,Overcast,50,2013-05-23 02:53:00
11:04 PM,64.4,60.8,88,29.66,9.0,Calm,Calm,-,N/A,,Overcast,0,2013-05-23 03:04:00
11:17 PM,62.6,59.0,88,29.66,4.0,NE,4.6,-,N/A,,Overcast,50,2013-05-23 03:17:00
11:53 PM,62.1,59.0,90,29.65,9.0,West,8.1,-,N/A,,Overcast,280,2013-05-23 03:53:00